Thermal, CA

12:18 PM PST on December 05, 2019 (GMT -0800)
Desert Resorts Regional

Weather History for KTRM - October, 2019

Change the Weather History Date:

Tuesday, October 22, 2019

  Actual Average Record
Temperature  
Mean Temperature 77 °F 71 °F  
Max Temperature 99 °F 89 °F 103 °F (2003)
Min Temperature 54 °F 53 °F 39 °F (1996)
Degree Days  
Heating Degree Days 0 0  
Month to date heating degree days 0 0  
Since 1 July heating degree days 0 0  
Cooling Degree Days 12 6  
Month to date cooling degree days 189 211  
Year to date cooling degree days 4174 3609  
Growing Degree Days 26 (Base 50)    
Moisture  
Dew Point 35 °F    
Average Humidity 29    
Maximum Humidity 51    
Minimum Humidity 7    
Precipitation  
Precipitation 0.00 in 0.00 in 0.34 in (1974)
Month to date precipitation 0.00 0.16  
Year to date precipitation 2.99 2.55  
Sea Level Pressure  
Sea Level Pressure 29.99 in    
Wind  
Wind Speed 4 mph (NW)    
Max Wind Speed 9 mph    
Max Gust Speed 13 mph    
Visibility 10 miles    
Events      
T = Trace of Precipitation, MM = Missing Value Source: NWS Daily Summary

Daily Weather History Graph

Daily Weather History Graph

Search for Another Location

Airport or City:

Astronomy

Oct. 22, 2019 Rise Set
Actual Time 6:54 AM PDT 6:02 PM PDT
Civil Twilight 6:29 AM PDT 6:28 PM PDT
Nautical Twilight 6:00 AM PDT 6:57 PM PDT
Astronomical Twilight 5:31 AM PDT 7:26 PM PDT
Moon 12:33 AM PDT (10/22) 2:53 PM PDT (10/22)
Length of Visible Light 11h 58m
Length of Day
11h 07m
Last Quarter, 36% of the Moon is Illuminated
Oct 22
Last Quarter
Oct 27
New
Nov 4
First Quarter
Nov 12
Full
Nov 19
Last Quarter

Hourly Weather History & Observations

Time (PDT) Temp. Dew Point Humidity Pressure Visibility Wind Dir Wind Speed Gust Speed Precip Events Conditions
12:52 AM 68.0 °F 35.1 °F 30% 30.04 in 10.0 mi NNW 8.1 mph - N/A   Clear
1:52 AM 60.1 °F 36.0 °F 41% 30.05 in 10.0 mi Calm Calm - N/A   Clear
2:52 AM 64.9 °F 33.1 °F 31% 30.04 in 10.0 mi North 8.1 mph - N/A   Clear
3:52 AM 59.0 °F 37.0 °F 44% 30.03 in 10.0 mi North 5.8 mph - N/A   Clear
4:52 AM 55.0 °F 37.9 °F 53% 30.04 in 10.0 mi WNW 3.5 mph - N/A   Clear
5:52 AM 64.0 °F 32.0 °F 30% 30.05 in 10.0 mi Variable 3.5 mph - N/A   Clear
7:52 AM 64.9 °F 37.9 °F 37% 30.07 in 10.0 mi West 6.9 mph - N/A   Clear
8:52 AM 75.0 °F 39.0 °F 27% 30.09 in 8.0 mi WNW 6.9 mph - N/A   Clear
9:52 AM 84.0 °F 36.0 °F 18% 30.08 in 10.0 mi NW 3.5 mph - N/A   Clear
10:52 AM 91.0 °F 37.0 °F 15% 30.10 in 10.0 mi North 4.6 mph - N/A   Clear
11:52 AM 93.9 °F 25.0 °F 8% 30.08 in 10.0 mi West 8.1 mph - N/A   Clear
12:52 PM 96.1 °F 26.1 °F 8% 30.01 in 10.0 mi SSW 8.1 mph - N/A   Clear
1:52 PM 97.0 °F 23.0 °F 7% 29.98 in 10.0 mi ENE 3.5 mph - N/A   Clear
2:52 PM 98.1 °F 23.0 °F 7% 29.95 in 10.0 mi Variable 3.5 mph - N/A   Clear
3:52 PM 97.0 °F 23.0 °F 7% 29.96 in 10.0 mi WSW 5.8 mph - N/A   Clear
4:52 PM 96.1 °F 24.1 °F 8% 29.91 in 10.0 mi Calm Calm - N/A   Clear
5:52 PM 84.0 °F 41.0 °F 22% 29.90 in 10.0 mi Calm Calm - N/A   Clear
6:52 PM 73.0 °F 39.9 °F 30% 29.91 in 10.0 mi ESE 4.6 mph - N/A   Clear
7:52 PM 68.0 °F 44.1 °F 42% 29.91 in 10.0 mi Calm Calm - N/A   Clear
8:52 PM 64.9 °F 45.0 °F 48% 29.92 in 10.0 mi Calm Calm - N/A   Clear
9:52 PM 68.0 °F 43.0 °F 40% 29.93 in 10.0 mi NNW 5.8 mph - N/A   Clear
10:52 PM 60.1 °F 42.1 °F 51% 29.92 in 10.0 mi North 3.5 mph - N/A   Clear
11:52 PM 59.0 °F 41.0 °F 51% 29.91 in 10.0 mi North 5.8 mph - N/A   Clear